Regional Weather Roundup
Issued by NWS

Home | Current Version | Previous Version | Text Only | Print | Product List | Glossary On
Versions: 1 2 3 4 5 6 7 8 9 10 11 12 13 14 15 16 17 18 19 20 21 22 23 24 25 26 27 28 29 30 31 32 33 34 35 36 37 38 39 40 41 42 43 44 45 46 47 48 49 50
000
ASCA42 TJSJ 180111
RWRPR
PUERTO RICO/U.S. VIRGIN ISLANDS HOURLY WEATHER ROUNDUP
NATIONAL WEATHER SERVICE SAN JUAN PR
900 PM AST WED DEC 17 2014

PRZ001-004-180200-
PUERTO RICO

CITY           SKY/WX    TMP DP  RH WIND       PRES   REMARKS
SAN JUAN LMM   PTCLDY    79  68  69 N9        30.05R
AGUADILLA      MOCLDY    75  66  73 E13       30.07R
CEIBA          PTCLDY    79  66  65 N9        30.07R
$$

PRZ006-007-180200-
U.S. VIRGIN ISLANDS

CITY           SKY/WX    TMP DP  RH WIND       PRES   REMARKS
$$

HOURLY WEATHER ROUNDUP FOR THE NEWS MEDIA

CITY           SKY/WX    TMP DP  RH WIND       PRES   REMARKS
MIAMI          CLEAR     69  55  60 S6        30.13F
ORLANDO        PTCLDY    61  48  62 W6        30.13S
NEW YORK       CLOUDY    48  34  58 W12       29.89S
NEWARK         MOCLDY    45  30  55 W14G21    29.90R
CHICAGO        CLOUDY    25  15  66 NW10      30.26R WCI  15
HARTFORD       CLEAR     45  38  76 W12       29.74S
BOSTON         CLOUDY    45  38  76 W14       29.73
DALLAS         LGT RAIN  43  41  93 NE7       30.15R
PHILADELPHIA   PTCLDY    44  26  49 W13       29.98R


USA.gov is the U.S. government's official web portal to all federal, state and local government web resources and services.